Terminal Aerodrome Forecast
Issued by NWS Grand Junction, CO

Home | Current Version | Previous Version | Text Only | Print | Product List | Glossary On
Versions: 1 2 3 4 5 6 7 8 9 10 11 12 13 14 15 16 17 18 19 20 21 22 23 24 25 26 27 28 29 30 31 32 33 34 35 36 37 38 39 40 41
000
FTUS45 KGJT 052351
TAFGJT
TAF
KGJT 052351Z 0600/0624 31010KT P6SM VCSH BKN035 BKN070
      TEMPO 0600/0604 -RA BKN040
     FM060600 11006KT P6SM -RA OVC050
     FM061900 22009KT P6SM -SHRA OVC050=

USA.gov is the U.S. government's official web portal to all federal, state and local government web resources and services.